Regional Weather Roundup
Issued by NWS

Home | Current Version | Previous Version | Text Only | Print | Product List | Glossary Off
Versions: 1 2 3 4 5 6 7 8 9 10 11 12 13 14 15 16 17 18 19 20 21 22 23 24 25 26 27

000
ASUS45 KSLC 190410
RWRUT

UTAH REGIONAL WEATHER ROUNDUP
NATIONAL WEATHER SERVICE SALT LAKE CITY UT
1000 PM MDT FRI APR 18 2014

UTZ001>011-023>025-190500-

NORTHERN UTAH

CITY           SKY/WX    TMP DP  RH WIND       PRES   REMARKS
HILL AFB       MOCLDY    53  38  57 NW6       29.98R
LOGAN          MOCLDY    48  42  80 SW6       29.99R
OGDEN          MOCLDY    53  40  61 W7        29.96R
PROVO AIRPORT  CLOUDY    55  43  62 NW13      29.96R
SALT LAKE CITY CLOUDY    54  49  83 W6        29.96R
VERNAL         CLOUDY    60  22  23 SW6       29.93R
WENDOVER       MOCLDY    57  39  51 E12       29.93R
HEBER CITY     CLOUDY    50  30  46 E6        29.98R
WEST JORDAN    PTCLDY    54  43  66 W6        29.98R

$$

UTZ012>022-026-027-190500-

SOUTHERN UTAH

CITY           SKY/WX    TMP DP  RH WIND       PRES   REMARKS
BRYCE CANYON   CLOUDY    44  25  47 CALM      30.11R
CEDAR CITY     PTCLDY    53  21  28 S8        30.00R
MILFORD        MOCLDY    55  25  31 S9        29.96R
MOAB/CYNLANDS  CLOUDY    67  27  22 SW10      29.94R
PRICE          CLOUDY    61  18  18 CALM      29.97R
ST GEORGE      CLOUDY    72  30  21 W5        29.92R

$$

REGIONAL REPORTS     COLORADO/ARIZONA

CITY           SKY/WX    TMP DP  RH WIND       PRES   REMARKS
CRAIG, CO      CLOUDY    55  32  41 N5        29.99R
GRAND JUNCTION CLOUDY    62  27  26 NE7       29.95R
RIFLE          CLOUDY    64  25  22 SW9       29.98R
MONTROSE       CLOUDY    61  30  31 CALM      30.03R
CORTEZ         PTCLDY    58  31  35 SW9       30.08R
PAGE, AZ       CLOUDY    65  33  30 S16G26    29.98R
GRAND CANYON   CLOUDY    47  37  68 S6        30.13R
KINGMAN        CLOUDY    64  36  35 SE17      29.96R
FLAGSTAFF      LGT RAIN  43  40  89 CALM      30.15R

$$

REGIONAL REPORTS    NEVADA/IDAHO/WYOMING

CITY           SKY/WX    TMP DP  RH WIND       PRES   REMARKS
LAS VEGAS, NV  CLOUDY    76  30  18 S17       29.82R
ELY            CLOUDY    52  32  46 NW5       30.01R
ELKO           PTCLDY    50  23  34 CALM      29.95R
POCATELLO, ID  CLEAR     49  19  30 SW15      29.99R
BURLEY         MOCLDY    46  29  51 S9        29.99R
EVANSTON, WY   CLOUDY    47  32  56 N7        30.06R
ROCK SPRINGS   CLOUDY    51  32  48 W10       30.03R

$$



USA.gov is the U.S. government's official web portal to all federal, state and local government web resources and services.